User: anonymous   Login
Location: Unspecified
(47.6579°N, 23.5637°E)
Time: 09:57:51
(UTC+02:00)
Language:

Envisat - Orbit

View from above orbital plane
View from above orbital plane
View from above satellite
View from above satellite

Ground track
Ground track

The orbit data is extracted from the following two-line orbital elements,

1 27386U 02009A   22026.93023105  .00000079  00000-0  39490-4 0  9997
2 27386  98.1690  14.7918 0001171  86.9960 305.6354 14.38071432 43128
Epoch (UTC): 26 January 2022 22:19:31
Eccentricity: 0.0001171
inclination: 98.1690°
perigee height: 764 km
apogee height: 766 km
right ascension of ascending node: 14.7918°
argument of perigee: 86.9960°
revolutions per day: 14.38071432
mean anomaly at epoch: 305.6354°
orbit number at epoch: 4312

The dashed part of the orbit path shows where the satellite is in the earth's shadow,  

DLR